Location: Radomski Observatory
(40.2854°N, 79.5145°W)
Time: 01:13:46
(UTC-05:00)

Cosmos 1072 Rocket - Visible Passes

Search period start: 21 December 2014 00:00
Search period end: 31 December 2014 00:00
Orbit: 948 x 1009 km, 82.9° (Epoch: 20 December)

Date Brightness Start Highest point End Pass type
(mag) Time Alt. Az. Time Alt. Az. Time Alt. Az.
23 Dec 7.0 06:50:45 10° NNE 06:54:20 16° ENE 06:57:56 10° ESE visible
26 Dec 7.1 06:24:56 10° NE 06:28:05 14° ENE 06:31:15 10° E visible
27 Dec 6.6 06:49:51 10° NNE 06:55:00 26° ENE 07:00:09 10° SE visible
29 Dec 7.2 05:59:13 10° NE 06:01:50 13° ENE 06:04:26 10° E visible
30 Dec 6.7 06:23:50 10° NNE 06:28:46 24° ENE 06:33:44 10° ESE visible
